Powrót do katalogu

STARLINK-11134

AktywnyŁącznośćVLEO
NORAD 59956·PAYLOAD·🇺🇸 United States

Wystrzelony Jun 5, 2024 z Cape Canaveral Space Force Station

Loading…

Następne Przeloty (najbliższe 24 godziny)

TLE

ŚwieżeSource: CelesTrak SupGP

Epoka: Sep 15, 2026, 02:46 UTC

1 59956C 24107M   26258.11576389 -.00106540  00000+0 -87747-3 0  2582
2 59956  53.1573  37.2051 0000979  96.0920 167.6792 15.69767681    14

Śledź STARLINK-11134 w czasie rzeczywistym z AllMySat

Download on the App Store